GEO-KOMPSAT-2A

Last updated on Thu Apr 09 2026 00:02:23 GMT+0000 (Coordinated Universal Time)

1 43823U 18100A 26097.75418863 -.00000342 00000+0 00000+0 0 9994 2 43823 0.0516 40.5396 0002096 24.6310 170.6297 1.00272327 26929
UTC large
Height (km)
Speed (km/s)
/
Latitude / Longitude
Inclination (degrees)
Orbital Period (minutes)
Azimuth
Elevation
Range (km)
Doppler Factor

Next 0 passes for location: London (51.5072 / 0.1276)

Sorry there are no passes over London.